Grand Isle, LA NWLON current weather conditions

sailwx.info

Wind from 080 at 18 knots gusting 23

Water temperature 15.0° C

Last reported at 2020-Jan-20 08:42 UTC.
Time now 2020-Jan-20 09:24 UTC

Location: N 29°16' W 089°57'.
View on Google Maps.

See reports from other nearby stations

  
Tides and Currents Weather Stations Pressure Air Temp Water Temp Dewpoint Dewpoint Depression Visibility Wind Speed Wind Dir Waves Ship Positions
date/time (UTC)wind fromknots sea level pressurealtimeterstation pressurevisibilityair tempwater tempwave heightnotes
2020-Jan-20 08:42 080 18 gusting 23 15.0
2020-Jan-20 08:36 073 17 gusting 24 15.0
2020-Jan-20 08:30 067 19 gusting 24 15.0
2020-Jan-20 08:24 077 18 gusting 22 15.0
2020-Jan-20 08:18 077 19 gusting 24 15.0
2020-Jan-20 08:12 077 15 gusting 25 15.0
2020-Jan-20 08:06 072 18 gusting 26 15.0
2020-Jan-20 08:00 069 19 gusting 24 15.6
2020-Jan-20 07:54 066 22 gusting 27 15.0
2020-Jan-20 07:48 073 18 gusting 26 15.0
2020-Jan-20 07:42 072 19 gusting 26 15.0
2020-Jan-20 07:36 075 19 gusting 26 15.0
2020-Jan-20 07:30 074 19 gusting 25 15.0
2020-Jan-20 07:24 073 18 gusting 26 15.6
2020-Jan-20 07:18 075 19 gusting 26 15.6
2020-Jan-20 07:12 071 18 gusting 26 15.6
2020-Jan-20 07:06 069 19 gusting 24 15.6
2020-Jan-20 07:00 068 17 gusting 23 15.6
2020-Jan-20 06:54 066 19 gusting 27 15.6
2020-Jan-20 06:48 066 18 gusting 26 15.6
2020-Jan-20 06:42 065 19 gusting 24 15.6
2020-Jan-20 06:36 066 18 gusting 26 15.6
2020-Jan-20 06:30 062 19 gusting 27 15.6
2020-Jan-20 06:24 065 19 gusting 26 15.6
2020-Jan-20 06:18 067 19 gusting 26 15.6
2020-Jan-20 06:12 065 20 gusting 28 15.6
2020-Jan-20 06:06 066 19 gusting 24 15.6
2020-Jan-20 06:00 069 19 gusting 27 15.6
2020-Jan-20 05:54 067 19 gusting 25 15.6
2020-Jan-20 05:48 071 19 gusting 26 15.6
2020-Jan-20 05:42 063 20 gusting 26 16.1
2020-Jan-20 05:36 059 22 gusting 26 16.1
2020-Jan-20 05:30 062 24 gusting 27 16.1
2020-Jan-20 05:24 067 21 gusting 27 15.6
2020-Jan-20 05:18 058 23 gusting 28 16.1
2020-Jan-20 05:12 063 20 gusting 26 16.1
2020-Jan-20 05:06 067 21 gusting 28 16.1
2020-Jan-20 05:00 059 21 gusting 26 16.1
2020-Jan-20 04:54 064 19 gusting 26 16.1
2020-Jan-20 04:48 061 22 gusting 28 16.1
2020-Jan-20 04:42 064 20 gusting 27 16.1
2020-Jan-20 04:36 063 18 gusting 25 16.1
2020-Jan-20 04:30 058 21 gusting 26 16.1
2020-Jan-20 04:24 061 20 gusting 24 16.1
2020-Jan-20 04:18 053 19 gusting 26 16.1
2020-Jan-20 04:12 046 20 gusting 26 16.1
2020-Jan-20 04:06 055 21 gusting 26 16.1
2020-Jan-20 04:00 055 20 gusting 27 16.1
2020-Jan-20 03:54 054 22 gusting 27 16.1
2020-Jan-20 03:48 058 20 gusting 25 16.1
2020-Jan-20 03:42 049 20 gusting 26 16.1
2020-Jan-20 03:36 042 19 gusting 24 16.1
2020-Jan-20 03:30 044 21 gusting 26 16.7
2020-Jan-20 03:24 040 21 gusting 26 16.7
2020-Jan-20 03:18 040 20 gusting 26 16.1
2020-Jan-20 03:12 044 19 gusting 26 16.7
2020-Jan-20 03:06 041 22 gusting 26 16.7
2020-Jan-20 03:00 046 20 gusting 27 16.7
2020-Jan-20 02:54 041 21 gusting 27 16.7
2020-Jan-20 02:48 046 18 gusting 26 16.7
2020-Jan-20 02:42 048 18 gusting 27 16.7
2020-Jan-20 02:36 043 20 gusting 26 16.7
2020-Jan-20 02:30 044 19 gusting 26 16.7
2020-Jan-20 02:24 036 19 gusting 26 16.7
2020-Jan-20 02:18 042 19 gusting 24 16.7
2020-Jan-20 02:12 040 19 gusting 25 16.7
2020-Jan-20 02:06 044 19 gusting 25 16.7
2020-Jan-20 02:00 038 20 gusting 25 16.7
2020-Jan-20 01:54 046 21 gusting 26 16.7
2020-Jan-20 01:48 039 19 gusting 26 16.7
2020-Jan-20 01:42 043 22 gusting 26 16.7
2020-Jan-20 01:36 038 19 gusting 26 16.7
2020-Jan-20 01:30 035 21 gusting 26 17.2
2020-Jan-20 01:24 048 19 gusting 26 17.2
2020-Jan-20 01:18 041 21 gusting 26 17.2
2020-Jan-20 01:12 048 19 gusting 24 17.2
2020-Jan-20 01:06 039 19 gusting 25 17.2
2020-Jan-20 01:00 048 18 gusting 26 17.2
2020-Jan-20 00:54 041 19 gusting 23 17.2
2020-Jan-20 00:48 049 18 gusting 24 17.2
2020-Jan-20 00:42 047 17 gusting 22 17.2
2020-Jan-20 00:36 044 17 gusting 22 17.2
2020-Jan-20 00:30 033 19 gusting 22 17.2
2020-Jan-20 00:24 038 18 gusting 21 17.2
2020-Jan-20 00:18 035 18 gusting 22 17.2
2020-Jan-20 00:12 039 19 gusting 23 17.2
2020-Jan-20 00:06 038 19 gusting 25 17.2
2020-Jan-20 00:00 042 16 gusting 22 17.2
2020-Jan-19 23:42 044 16 gusting 21 17.2
2020-Jan-19 23:36 041 16 gusting 21 17.8
2020-Jan-19 23:30 041 16 gusting 21 17.8
2020-Jan-19 23:24 049 15 gusting 22 17.8
2020-Jan-19 23:18 041 19 gusting 24 17.8
2020-Jan-19 23:12 036 18 gusting 21 17.8
2020-Jan-19 23:06 046 18 gusting 23 17.8
2020-Jan-19 23:00 047 15 gusting 22 17.8
2020-Jan-19 22:54 051 15 gusting 19 17.8
2020-Jan-19 22:48 051 13 gusting 21 17.8
2020-Jan-19 22:42 053 16 gusting 19 17.8
2020-Jan-19 22:36 038 17 gusting 21 17.8
2020-Jan-19 22:30 049 13 gusting 19 17.8
2020-Jan-19 22:24 045 13 gusting 18 17.8
2020-Jan-19 22:18 048 14 gusting 19 17.8
2020-Jan-19 22:12 041 16 gusting 22 17.8
2020-Jan-19 22:06 048 12 gusting 17 17.8
2020-Jan-19 22:00 040 18 gusting 21 17.8
2020-Jan-19 21:54 037 14 gusting 20 17.8
2020-Jan-19 21:48 026 16 gusting 20 17.8
2020-Jan-19 21:42 036 15 gusting 19 17.8
2020-Jan-19 21:36 038 17 gusting 22 17.8
2020-Jan-19 21:30 034 15 gusting 19 17.8
2020-Jan-19 21:24 043 16 gusting 20 17.8
2020-Jan-19 21:18 041 17 gusting 20 17.8
2020-Jan-19 21:12 042 18 gusting 22 17.8
2020-Jan-19 21:06 024 15 gusting 19 17.8
2020-Jan-19 21:00 056 14 gusting 19 17.8
2020-Jan-19 20:54 050 13 gusting 20 17.8
2020-Jan-19 20:48 051 15 gusting 19 17.8
2020-Jan-19 20:42 043 16 gusting 21 17.8
2020-Jan-19 20:36 046 13 gusting 21 17.8
2020-Jan-19 20:30 048 17 gusting 21 17.8
2020-Jan-19 20:24 043 15 gusting 20 17.8
2020-Jan-19 20:18 045 16 gusting 20 17.8
2020-Jan-19 20:12 050 13 gusting 19 17.8
2020-Jan-19 20:06 035 14 gusting 19 17.8
2020-Jan-19 20:00 033 17 gusting 21 17.8
2020-Jan-19 19:54 045 16 gusting 22 17.8
2020-Jan-19 19:48 050 16 gusting 24 17.8
2020-Jan-19 19:42 042 19 gusting 23 17.8
2020-Jan-19 19:36 047 19 gusting 23 17.8
2020-Jan-19 19:30 051 14 gusting 20 17.8
2020-Jan-19 19:24 050 13 gusting 20 17.8
2020-Jan-19 19:18 043 17 gusting 21 17.8
2020-Jan-19 19:12 047 17 gusting 21 17.8
2020-Jan-19 19:06 049 16 gusting 23 17.8
2020-Jan-19 19:00 045 16 gusting 22 17.8
2020-Jan-19 18:54 050 15 gusting 22 17.8
2020-Jan-19 18:48 052 16 gusting 23 17.8
2020-Jan-19 18:42 049 16 gusting 24 17.8
2020-Jan-19 18:36 040 19 gusting 23 17.8
2020-Jan-19 18:30 052 17 gusting 22 17.8
2020-Jan-19 18:24 048 19 gusting 26 17.8
2020-Jan-19 18:18 052 17 gusting 24 17.8
2020-Jan-19 18:12 043 18 gusting 23 17.8
2020-Jan-19 18:06 055 19 gusting 24 17.8
2020-Jan-19 18:00 054 20 gusting 26 17.8
2020-Jan-19 17:54 051 18 gusting 26 17.8
2020-Jan-19 17:48 055 16 gusting 25 17.8
2020-Jan-19 17:42 056 17 gusting 22 17.8
2020-Jan-19 17:36 049 16 gusting 23 17.8
2020-Jan-19 17:30 052 17 gusting 22 17.8
2020-Jan-19 17:24 049 17 gusting 23 17.8
2020-Jan-19 17:18 051 16 gusting 24 17.8
2020-Jan-19 17:12 043 19 gusting 23 17.8
2020-Jan-19 17:06 051 16 gusting 20 17.8
2020-Jan-19 17:00 046 17 gusting 23 17.8
2020-Jan-19 16:54 049 17 gusting 25 17.8
2020-Jan-19 16:48 050 15 gusting 22 18.3
2020-Jan-19 16:42 049 16 gusting 21 18.3
2020-Jan-19 16:36 052 14 gusting 22 18.3
2020-Jan-19 16:30 034 17 gusting 20 18.3
2020-Jan-19 16:24 044 15 gusting 21 18.3
2020-Jan-19 16:18 053 15 gusting 21 18.3
2020-Jan-19 16:12 052 17 gusting 23 18.3
2020-Jan-19 16:06 052 17 gusting 23 18.3
2020-Jan-19 16:00 051 18 gusting 24 18.3
2020-Jan-19 15:54 048 18 gusting 25 18.3
2020-Jan-19 15:48 047 16 gusting 25 18.3
2020-Jan-19 15:42 045 18 gusting 22 18.3
2020-Jan-19 15:36 048 16 gusting 24 18.3
2020-Jan-19 15:30 050 18 gusting 23 18.3
2020-Jan-19 15:24 048 17 gusting 25 18.3
2020-Jan-19 15:18 044 19 gusting 26 18.3
2020-Jan-19 15:12 038 19 gusting 26 18.3
2020-Jan-19 15:06 046 17 gusting 25 18.3
2020-Jan-19 15:00 044 20 gusting 26 18.3
2020-Jan-19 14:54 046 19 gusting 26 18.3
2020-Jan-19 14:48 046 19 gusting 26 18.3
2020-Jan-19 14:42 045 19 gusting 27 18.3
2020-Jan-19 14:36 039 19 gusting 24 18.3
2020-Jan-19 14:30 039 19 gusting 25 18.3
2020-Jan-19 14:24 042 18 gusting 22 18.3
2020-Jan-19 14:18 035 19 gusting 24 18.3
2020-Jan-19 14:12 035 21 gusting 26 18.3
2020-Jan-19 14:06 038 18 gusting 22 18.3
2020-Jan-19 14:00 039 18 gusting 21 18.3
2020-Jan-19 13:54 045 17 gusting 25 18.3
2020-Jan-19 13:48 044 16 gusting 24 18.3
2020-Jan-19 13:42 031 18 gusting 24 18.3
2020-Jan-19 13:36 032 19 gusting 24 18.3
2020-Jan-19 13:30 046 17 gusting 23 18.3
2020-Jan-19 13:24 038 18 gusting 23 18.3
2020-Jan-19 13:18 037 18 gusting 24 18.3
2020-Jan-19 13:12 028 19 gusting 23 18.3
2020-Jan-19 13:06 032 19 gusting 23 18.3
2020-Jan-19 13:00 037 19 gusting 24 18.3
2020-Jan-19 12:54 037 19 gusting 26 18.3
2020-Jan-19 12:48 041 19 gusting 24 18.3
2020-Jan-19 12:42 042 17 gusting 24 18.3
2020-Jan-19 12:36 033 20 gusting 24 18.3
2020-Jan-19 12:30 020 21 gusting 26 18.3
2020-Jan-19 12:24 022 19 gusting 24 18.3
2020-Jan-19 12:18 034 19 gusting 24 18.3
2020-Jan-19 12:12 037 19 gusting 24 18.3
2020-Jan-19 12:06 036 16 gusting 23 18.3
2020-Jan-19 12:00 034 20 gusting 26 18.3
2020-Jan-19 11:54 038 17 gusting 24 18.3
2020-Jan-19 11:48 042 15 gusting 19 18.3
2020-Jan-19 11:42 035 18 gusting 24 18.3
2020-Jan-19 11:36 023 20 gusting 24 18.3
2020-Jan-19 11:30 022 19 gusting 22 18.3
2020-Jan-19 11:24 023 17 gusting 21 18.3
2020-Jan-19 11:18 007 19 gusting 23 18.3
2020-Jan-19 11:12 012 19 gusting 25 18.3
2020-Jan-19 11:06 010 16 gusting 20 18.3
2020-Jan-19 11:00 012 17 gusting 20 18.3
2020-Jan-19 10:54 028 12 gusting 19 18.9
2020-Jan-19 10:48 024 13 gusting 22 18.3
2020-Jan-19 10:42 003 19 gusting 25 18.3
2020-Jan-19 10:36 012 19 gusting 24 18.9
2020-Jan-19 10:30 001 19 gusting 24 18.9
2020-Jan-19 10:24 001 19 gusting 25 18.9
2020-Jan-19 10:18 352 15 gusting 20 18.9
2020-Jan-19 10:12 18.9
2020-Jan-19 10:06 356 15 gusting 20 18.9
2020-Jan-19 10:00 006 17 gusting 19 18.9
2020-Jan-19 09:54 010 14 gusting 20 18.9
2020-Jan-19 09:48 003 14 gusting 19 18.9
2020-Jan-19 09:42 014 13 gusting 18 18.9
2020-Jan-19 09:36 017 13 gusting 19 18.9
2020-Jan-19 09:30 360 17 gusting 20 18.9
2020-Jan-19 09:24 004 13 gusting 18 18.9
2020-Jan-19 09:18 007 14 gusting 18 18.9
2020-Jan-19 09:12 004 15 gusting 18 18.9
2020-Jan-19 09:06 012 13 gusting 19 18.9
2020-Jan-19 09:00 354 18 gusting 20 18.9
2020-Jan-19 08:54 008 16 gusting 20 18.9
2020-Jan-19 08:48 358 17 gusting 19 18.9
2020-Jan-19 08:42 358 15 gusting 19 18.3
2020-Jan-19 08:36 001 16 gusting 22 18.3
2020-Jan-19 08:30 352 19 gusting 24 18.3
2020-Jan-19 08:24 347 18 gusting 24 18.3
2020-Jan-19 08:18 331 14 gusting 19 18.3
2020-Jan-19 08:12 329 14 gusting 18 18.3
2020-Jan-19 08:06 335 11 gusting 14 18.3
2020-Jan-19 08:00 333 12 gusting 13 18.3
2020-Jan-19 07:54 332 11 gusting 13 18.3
2020-Jan-19 07:48 337 10 gusting 14 18.3
2020-Jan-19 07:42 333 12 gusting 15 18.3
2020-Jan-19 07:36 331 11 gusting 14 18.3
2020-Jan-19 07:30 321 9 gusting 11 18.3
2020-Jan-19 07:24 328 9 gusting 10 18.3
2020-Jan-19 07:18 323 8 gusting 10 18.9
2020-Jan-19 07:12 322 7 gusting 13 18.9
2020-Jan-19 07:06 315 9 gusting 11 18.9
2020-Jan-19 07:00 305 9 gusting 12 18.9
2020-Jan-19 06:54 306 9 gusting 11 18.9
2020-Jan-19 06:48 311 6 gusting 7 18.9
2020-Jan-19 06:42 313 6 gusting 6 18.9
2020-Jan-19 06:36 313 5 gusting 5 18.9
2020-Jan-19 06:30 314 2 gusting 3 18.9
2020-Jan-19 06:24 310 2 gusting 3 18.9
2020-Jan-19 06:18 311 3 gusting 3 18.9
2020-Jan-19 06:12 311 2 gusting 3 18.9
2020-Jan-19 06:06 299 3 gusting 3 18.9
2020-Jan-19 06:00 318 2 gusting 3 18.9
2020-Jan-19 05:54 314 3 gusting 5 18.9
2020-Jan-19 05:48 312 4 gusting 6 18.9
2020-Jan-19 05:42 329 6 gusting 7 18.9
2020-Jan-19 05:36 330 6 gusting 8 18.9
2020-Jan-19 05:30 327 4 gusting 5 18.9
2020-Jan-19 05:24 266 3 gusting 6 18.9
2020-Jan-19 05:18 253 3 gusting 5 18.9
2020-Jan-19 05:12 267 3 gusting 4 18.9
2020-Jan-19 05:06 283 4 gusting 5 18.9
2020-Jan-19 05:00 252 1 gusting 2 18.9
2020-Jan-19 04:54 179 1 gusting 3 18.9
2020-Jan-19 04:48 176 3 gusting 3 18.9
2020-Jan-19 04:42 203 2 gusting 3 18.9
2020-Jan-19 04:36 238 2 gusting 4 18.9
2020-Jan-19 04:30 270 4 gusting 4 18.9
2020-Jan-19 04:24 282 3 gusting 4 18.9
2020-Jan-19 04:18 313 3 gusting 4 18.9
2020-Jan-19 04:12 295 4 gusting 4 18.9
2020-Jan-19 04:06 269 3 gusting 4 18.9
2020-Jan-19 04:00 234 3 gusting 3 18.9
2020-Jan-19 03:54 210 3 gusting 6 18.9
2020-Jan-19 03:48 188 4 gusting 6 18.9
2020-Jan-19 03:42 179 3 gusting 5 18.9
2020-Jan-19 03:36 215 3 gusting 5 18.9
2020-Jan-19 03:30 223 3 gusting 4 18.9
2020-Jan-19 03:24 230 3 gusting 4 18.9
2020-Jan-19 03:18 232 3 gusting 4 18.9
2020-Jan-19 03:12 220 2 gusting 4 18.9
2020-Jan-19 03:06 208 3 gusting 4 18.9
2020-Jan-19 03:00 209 1 gusting 4 18.9
2020-Jan-19 02:54 213 3 gusting 3 18.9
2020-Jan-19 02:48 229 2 gusting 3 18.9
2020-Jan-19 02:42 224 3 gusting 5 18.9
2020-Jan-19 02:36 227 3 gusting 6 18.9
2020-Jan-19 02:30 210 3 gusting 4 18.9
2020-Jan-19 02:24 197 3 gusting 4 18.9
2020-Jan-19 02:18 198 3 gusting 5 18.9
2020-Jan-19 02:12 195 4 gusting 5 18.9
2020-Jan-19 02:06 190 4 gusting 6 18.9
2020-Jan-19 02:00 188 4 gusting 6 18.9
2020-Jan-19 01:54 191 4 gusting 5 18.9
2020-Jan-19 01:42 173 4 gusting 5 18.9
2020-Jan-19 01:36 170 3 gusting 4 18.9
2020-Jan-19 01:30 212 2 gusting 3 18.9
2020-Jan-19 01:24 201 2 gusting 3 18.9
2020-Jan-19 01:18 207 2 gusting 4 18.9
2020-Jan-19 01:12 218 3 gusting 3 18.9
2020-Jan-19 01:06 222 3 gusting 3 18.9
2020-Jan-19 01:00 212 2 gusting 3 18.9
2020-Jan-19 00:54 220 2 gusting 3 18.9
2020-Jan-19 00:48 230 1 gusting 2 18.9
2020-Jan-19 00:42 240 1 gusting 1 18.9
2020-Jan-19 00:36 234 0 gusting 1 18.9
2020-Jan-19 00:30 247 1 gusting 2 18.9
2020-Jan-19 00:24 249 2 gusting 2 18.9
2020-Jan-19 00:18 222 2 gusting 3 18.9
2020-Jan-19 00:12 233 2 gusting 3 18.9
2020-Jan-19 00:06 235 2 gusting 3 18.9
2020-Jan-19 00:00 218 1 gusting 1 18.9
2020-Jan-18 23:48 217 0 gusting 1 18.9
2020-Jan-18 23:42 243 1 gusting 3 18.9
2020-Jan-18 23:36 297 3 gusting 4 18.9
2020-Jan-18 23:30 288 2 gusting 3 18.9
2020-Jan-18 23:24 285 1 gusting 3 18.9
2020-Jan-18 23:18 229 2 gusting 3 18.9
2020-Jan-18 23:12 226 0 gusting 1 18.9
2020-Jan-18 23:06 204 1 gusting 2 18.9
2020-Jan-18 23:00 203 1 gusting 2 18.9
2020-Jan-18 22:54 172 2 gusting 3 18.9
2020-Jan-18 22:48 227 2 gusting 3 18.9
2020-Jan-18 22:42 218 1 gusting 2 18.9
2020-Jan-18 22:36 208 2 gusting 4 18.9
2020-Jan-18 22:30 199 3 gusting 4 18.9
2020-Jan-18 22:24 199 3 gusting 4 18.9
2020-Jan-18 22:18 185 3 gusting 5 18.9
2020-Jan-18 22:12 178 3 gusting 4 18.9
2020-Jan-18 22:06 186 3 gusting 5 18.9
2020-Jan-18 22:00 184 3 gusting 4 18.9
2020-Jan-18 21:54 194 2 gusting 4 18.9
2020-Jan-18 21:48 189 3 gusting 5 18.9
2020-Jan-18 21:42 183 4 gusting 5 18.9
2020-Jan-18 21:36 180 3 gusting 6 18.9
2020-Jan-18 21:30 189 3 gusting 6 18.9
2020-Jan-18 21:24 186 3 gusting 5 18.9
2020-Jan-18 21:18 180 3 gusting 5 18.9
2020-Jan-18 21:12 172 4 gusting 6 18.9
2020-Jan-18 21:06 178 4 gusting 6 18.9
2020-Jan-18 21:00 181 4 gusting 6 18.9
2020-Jan-18 20:54 172 5 gusting 6 18.9
2020-Jan-18 20:48 162 3 gusting 5 18.9
2020-Jan-18 20:42 174 3 gusting 4 18.9
2020-Jan-18 20:36 187 3 gusting 6 18.9
2020-Jan-18 20:30 171 4 gusting 6 18.9
2020-Jan-18 20:24 165 3 gusting 5 18.9
2020-Jan-18 20:18 168 4 gusting 6 18.9
2020-Jan-18 20:12 170 4 gusting 6 18.9
2020-Jan-18 20:06 174 5 gusting 7 18.9
2020-Jan-18 20:00 164 5 gusting 7 18.9
2020-Jan-18 19:54 163 5 gusting 7 18.9
2020-Jan-18 19:48 164 4 gusting 7 18.9
2020-Jan-18 19:42 174 5 gusting 7 18.9
2020-Jan-18 19:36 166 4 gusting 7 18.9
2020-Jan-18 19:30 165 4 gusting 5 18.9
2020-Jan-18 19:24 164 3 gusting 6 18.9
2020-Jan-18 19:18 161 3 gusting 5 18.9
2020-Jan-18 19:12 147 2 gusting 5 18.9
2020-Jan-18 19:06 154 1 gusting 5 18.9
2020-Jan-18 19:00 158 3 gusting 6 18.9
2020-Jan-18 18:54 159 3 gusting 6 18.9
2020-Jan-18 18:48 150 1 gusting 5 18.9
2020-Jan-18 18:42 155 2 gusting 6 18.9
2020-Jan-18 18:36 167 5 gusting 8 18.9
2020-Jan-18 18:30 167 4 gusting 7 18.9
2020-Jan-18 18:24 162 4 gusting 6 18.9
2020-Jan-18 18:18 160 4 gusting 7 18.9
2020-Jan-18 18:12 165 3 gusting 5 18.9
2020-Jan-18 18:06 148 2 gusting 5 18.9
2020-Jan-18 18:00 144 2 gusting 5 18.9
2020-Jan-18 17:54 145 2 gusting 5 18.9
2020-Jan-18 17:48 159 2 gusting 5 18.9
2020-Jan-18 17:42 146 3 gusting 6 18.9
2020-Jan-18 17:36 131 2 gusting 5 18.9
2020-Jan-18 17:30 124 2 gusting 4 18.9
2020-Jan-18 17:24 110 2 gusting 4 18.9
2020-Jan-18 17:18 108 4 gusting 5 18.9
2020-Jan-18 17:12 113 2 gusting 5 18.9
2020-Jan-18 17:06 113 3 gusting 6 18.9
2020-Jan-18 17:00 119 2 gusting 5 18.9
2020-Jan-18 16:54 126 1 gusting 5 18.9
2020-Jan-18 16:48 108 3 gusting 5 18.9
2020-Jan-18 16:42 102 4 gusting 6 18.9
2020-Jan-18 16:36 107 2 gusting 4 18.9
2020-Jan-18 16:30 119 2 gusting 6 18.9
2020-Jan-18 16:24 111 3 gusting 6 18.9
2020-Jan-18 16:18 098 4 gusting 6 18.9
2020-Jan-18 16:12 092 4 gusting 6 18.9
2020-Jan-18 16:06 090 4 gusting 6 18.9
2020-Jan-18 16:00 103 4 gusting 6 18.9
2020-Jan-18 15:54 097 5 gusting 7 18.9
2020-Jan-18 15:48 100 3 gusting 5 18.9
2020-Jan-18 15:42 099 3 gusting 4 18.9
2020-Jan-18 15:36 099 3 gusting 4 18.9
2020-Jan-18 15:30 110 2 gusting 6 18.9
2020-Jan-18 15:24 118 1 gusting 4 18.9
2020-Jan-18 15:18 109 2 gusting 4 18.9
2020-Jan-18 15:12 128 2 gusting 4 18.9
2020-Jan-18 15:06 124 3 gusting 5 18.9
2020-Jan-18 15:00 110 2 gusting 5 18.9
2020-Jan-18 14:54 104 3 gusting 5 18.9
2020-Jan-18 14:48 113 2 gusting 5 18.9
2020-Jan-18 14:42 125 2 gusting 4 18.9
2020-Jan-18 14:36 125 2 gusting 6 18.9
2020-Jan-18 14:30 108 3 gusting 6 18.9
2020-Jan-18 14:24 108 4 gusting 6 18.9
2020-Jan-18 14:18 109 4 gusting 6 18.9
2020-Jan-18 14:12 116 2 gusting 4 18.9
2020-Jan-18 14:06 131 2 gusting 4 18.9
2020-Jan-18 14:00 142 2 gusting 4 18.9
2020-Jan-18 13:54 130 1 gusting 6 18.9
2020-Jan-18 13:48 121 3 gusting 6 18.9
2020-Jan-18 13:42 125 2 gusting 6 18.9
2020-Jan-18 13:36 126 2 gusting 6 18.9
2020-Jan-18 13:30 121 3 gusting 7 18.9
2020-Jan-18 13:24 113 4 gusting 6 18.9
2020-Jan-18 13:18 111 3 gusting 5 18.9
2020-Jan-18 13:12 116 3 gusting 6 18.9
2020-Jan-18 13:06 117 4 gusting 8 18.9
2020-Jan-18 13:00 109 6 gusting 10 18.9
2020-Jan-18 12:54 113 5 gusting 8 18.9
2020-Jan-18 12:48 119 5 gusting 9 18.9
2020-Jan-18 12:42 113 4 gusting 8 18.9
2020-Jan-18 12:36 110 6 gusting 11 18.9
2020-Jan-18 12:30 108 7 gusting 9 18.9
2020-Jan-18 12:24 154 4 gusting 6 18.9
2020-Jan-18 12:18 110 6 gusting 9 18.9
2020-Jan-18 12:12 109 5 gusting 6 18.9
2020-Jan-18 12:06 114 3 gusting 7 18.9
2020-Jan-18 12:00 111 4 gusting 9 18.9
2020-Jan-18 11:54 107 6 gusting 8 18.9
2020-Jan-18 11:48 107 5 gusting 9 18.9
2020-Jan-18 11:42 108 6 gusting 9 18.9
2020-Jan-18 11:36 107 5 gusting 7 18.9
2020-Jan-18 11:30 107 5 gusting 9 18.9
2020-Jan-18 11:24 106 6 gusting 9 19.4
2020-Jan-18 11:18 105 5 gusting 8 19.4
2020-Jan-18 11:12 106 6 gusting 8 19.4
2020-Jan-18 11:06 111 5 gusting 7 19.4
2020-Jan-18 11:00 117 4 gusting 8 19.4
2020-Jan-18 10:54 110 5 gusting 6 19.4
2020-Jan-18 10:48 109 4 gusting 7 19.4
2020-Jan-18 10:42 114 3 gusting 6 19.4
2020-Jan-18 10:36 103 5 gusting 6 19.4
2020-Jan-18 10:30 102 5 gusting 6 19.4
2020-Jan-18 10:24 105 5 gusting 6 19.4
2020-Jan-18 10:18 102 4 gusting 6 19.4
2020-Jan-18 10:12 103 5 gusting 6 19.4
2020-Jan-18 10:06 103 4 gusting 6 19.4
2020-Jan-18 10:00 104 4 gusting 6 19.4
2020-Jan-18 09:54 101 5 gusting 6 19.4
2020-Jan-18 09:48 103 4 gusting 7 19.4
2020-Jan-18 09:42 101 5 gusting 8 19.4
2020-Jan-18 09:36 105 6 gusting 8 19.4
2020-Jan-18 09:30 108 6 gusting 9 19.4
2020-Jan-18 09:24 106 6 gusting 8 19.4
2020-Jan-18 09:18 105 5 gusting 8 19.4
2020-Jan-18 09:12 110 4 gusting 7 19.4
2020-Jan-18 09:06 109 6 gusting 9 19.4
2020-Jan-18 09:00 106 6 gusting 8 19.4